TimeEST,TemperatureF,Dew PointF,Humidity,Sea Level PressureIn,VisibilityMPH,Wind Direction,Wind SpeedMPH,Gust SpeedMPH,PrecipitationIn,Events,Conditions,WindDirDegrees,DateUTC
12:13 AM,24.8,21.2,86,29.98,4.0,NW,8.1,-,0.00,Snow,Light Snow,320,2013-03-02 05:13:00
12:52 AM,24.1,21.9,91,30.03,4.0,NW,6.9,-,0.00,Snow,Light Snow,310,2013-03-02 05:52:00
1:50 AM,24.8,21.2,86,29.98,4.0,NW,8.1,-,0.02,Snow,Light Snow,310,2013-03-02 06:50:00
1:52 AM,25.0,23.0,92,30.03,4.0,NW,11.5,-,0.02,Snow,Light Snow,320,2013-03-02 06:52:00
2:17 AM,24.8,21.2,86,29.98,5.0,NW,9.2,-,0.00,Snow,Light Snow,320,2013-03-02 07:17:00
2:34 AM,24.8,21.2,86,29.97,5.0,NW,10.4,-,0.00,Snow,Light Snow,320,2013-03-02 07:34:00
2:52 AM,24.1,21.9,91,30.02,7.0,NW,10.4,-,0.00,Snow,Light Snow,320,2013-03-02 07:52:00
3:28 AM,24.8,21.2,86,29.96,5.0,NW,10.4,-,N/A,Snow,Light Snow,320,2013-03-02 08:28:00
3:52 AM,24.1,21.9,91,30.01,5.0,NW,10.4,-,0.00,Snow,Light Snow,320,2013-03-02 08:52:00
4:52 AM,24.1,21.9,91,30.01,3.0,NW,9.2,-,0.01,Snow,Light Snow,320,2013-03-02 09:52:00
5:33 AM,24.8,21.2,86,29.96,2.5,NW,8.1,-,0.00,Snow,Light Snow,310,2013-03-02 10:33:00
5:47 AM,24.8,21.2,86,29.97,3.0,WNW,10.4,-,0.00,Snow,Light Snow,300,2013-03-02 10:47:00
5:52 AM,24.1,21.0,88,30.02,3.0,NW,9.2,-,0.00,Snow,Light Snow,310,2013-03-02 10:52:00
6:37 AM,23.0,21.2,93,29.97,2.5,NW,10.4,-,0.01,Snow,Light Snow,310,2013-03-02 11:37:00
6:52 AM,23.0,21.0,92,30.02,4.0,NW,10.4,-,0.01,Snow,Light Snow,310,2013-03-02 11:52:00
7:35 AM,23.0,21.2,93,29.97,1.8,NW,8.1,-,0.00,Snow,Light Snow,310,2013-03-02 12:35:00
7:49 AM,24.8,21.2,86,29.97,3.0,NW,10.4,-,0.00,Snow,Light Snow,310,2013-03-02 12:49:00
7:52 AM,24.1,21.9,91,30.02,3.0,NW,9.2,-,0.00,Snow,Light Snow,310,2013-03-02 12:52:00
8:02 AM,24.8,21.2,86,29.97,2.0,NW,9.2,-,0.00,Snow,Light Snow,310,2013-03-02 13:02:00
8:22 AM,24.8,21.2,86,29.97,1.5,NW,9.2,-,0.00,Snow,Light Snow,310,2013-03-02 13:22:00
8:52 AM,25.0,21.9,88,30.03,1.8,NW,13.8,-,0.00,Snow,Light Snow,320,2013-03-02 13:52:00
9:15 AM,24.8,21.2,86,29.97,3.0,NW,12.7,-,0.00,Snow,Light Snow,320,2013-03-02 14:15:00
9:23 AM,24.8,21.2,86,29.97,2.5,NW,15.0,-,0.00,Snow,Light Snow,320,2013-03-02 14:23:00
9:32 AM,24.8,21.2,86,29.98,1.2,NW,13.8,-,0.00,Snow,Light Snow,320,2013-03-02 14:32:00
9:52 AM,25.0,21.0,85,30.02,1.5,NW,15.0,21.9,0.00,Snow,Light Snow,320,2013-03-02 14:52:00
9:59 AM,24.8,21.2,86,29.97,1.8,NW,13.8,-,0.00,Snow,Light Snow,320,2013-03-02 14:59:00
10:04 AM,24.8,21.2,86,29.98,2.0,NNW,15.0,-,0.00,Snow,Light Snow,330,2013-03-02 15:04:00
10:07 AM,24.8,21.2,86,29.98,3.0,NNW,15.0,-,0.00,Snow,Light Snow,330,2013-03-02 15:07:00
10:17 AM,26.6,19.4,74,29.98,8.0,NNW,11.5,-,0.00,,Overcast,340,2013-03-02 15:17:00
10:26 AM,26.6,19.4,74,29.97,9.0,NNW,12.7,19.6,0.00,,Overcast,330,2013-03-02 15:26:00
10:38 AM,26.6,19.4,74,29.97,5.0,NNW,15.0,-,0.00,Snow,Light Snow,340,2013-03-02 15:38:00
10:52 AM,26.1,19.9,78,30.03,9.0,NNW,15.0,20.7,0.00,,Overcast,330,2013-03-02 15:52:00
11:16 AM,26.6,19.4,74,29.97,1.8,NNW,12.7,-,0.00,Snow,Light Snow,340,2013-03-02 16:16:00
11:52 AM,27.0,21.0,78,30.03,1.5,NW,16.1,-,0.00,Snow,Light Snow,320,2013-03-02 16:52:00
12:11 PM,26.6,21.2,80,29.98,2.5,NNW,13.8,-,0.00,Snow,Light Snow,330,2013-03-02 17:11:00
12:40 PM,28.4,19.4,69,29.97,2.5,NNW,13.8,17.3,0.00,,Haze,340,2013-03-02 17:40:00
12:52 PM,27.0,19.0,72,30.01,2.5,North,16.1,-,0.00,,Haze,350,2013-03-02 17:52:00
1:22 PM,28.4,19.4,69,29.96,7.0,North,10.4,-,0.00,Snow,Light Snow,360,2013-03-02 18:22:00
1:49 PM,26.6,19.4,74,29.96,1.8,NNW,11.5,-,0.00,Snow,Light Snow,330,2013-03-02 18:49:00
1:52 PM,26.1,21.9,84,30.01,1.2,NW,11.5,-,0.00,Snow,Light Snow,320,2013-03-02 18:52:00
2:04 PM,26.6,19.4,74,29.96,4.0,NW,11.5,-,0.00,Snow,Light Snow,320,2013-03-02 19:04:00
2:17 PM,26.6,21.2,80,29.96,2.5,NNW,12.7,-,0.00,Snow,Light Snow,330,2013-03-02 19:17:00
2:23 PM,26.6,21.2,80,29.96,0.8,NW,10.4,-,0.00,Snow,Light Snow,310,2013-03-02 19:23:00
2:37 PM,26.6,21.2,80,29.96,1.2,NNW,12.7,-,0.01,Snow,Light Snow,330,2013-03-02 19:37:00
2:52 PM,27.0,21.9,81,30.01,1.5,NW,12.7,-,0.01,Snow,Light Snow,320,2013-03-02 19:52:00
3:10 PM,26.6,21.2,80,29.96,2.5,NW,12.7,-,0.00,Snow,Light Snow,320,2013-03-02 20:10:00
3:19 PM,26.6,21.2,80,29.95,1.2,NNW,12.7,-,0.00,Snow,Light Snow,330,2013-03-02 20:19:00
3:52 PM,27.0,21.9,81,30.01,1.5,NNW,8.1,-,0.00,Snow,Light Snow,330,2013-03-02 20:52:00
4:08 PM,26.6,21.2,80,29.96,1.2,NW,11.5,-,0.00,Snow,Light Snow,320,2013-03-02 21:08:00
4:34 PM,26.6,21.2,80,29.96,1.5,NNW,10.4,-,0.00,Snow,Light Snow,330,2013-03-02 21:34:00
4:37 PM,26.6,21.2,80,29.96,2.0,NW,11.5,-,0.00,Snow,Light Snow,320,2013-03-02 21:37:00
4:44 PM,26.6,21.2,80,29.96,2.5,NW,9.2,-,0.00,Snow,Light Snow,320,2013-03-02 21:44:00
4:52 PM,26.1,21.9,84,30.01,2.5,NW,10.4,-,0.00,Snow,Light Snow,320,2013-03-02 21:52:00
5:25 PM,24.8,21.2,86,29.97,2.5,NNW,10.4,-,0.00,Snow,Light Snow,330,2013-03-02 22:25:00
5:34 PM,24.8,21.2,86,29.97,4.0,NW,9.2,-,0.00,,Overcast,320,2013-03-02 22:34:00
5:52 PM,24.8,21.2,86,29.97,5.0,NW,9.2,-,N/A,,Overcast,320,2013-03-02 22:52:00
6:37 PM,24.8,21.2,86,29.98,4.0,NW,9.2,-,0.00,Snow,Light Snow,320,2013-03-02 23:37:00
6:44 PM,24.8,21.2,86,29.98,3.0,NW,8.1,-,0.00,Snow,Light Snow,320,2013-03-02 23:44:00
6:52 PM,25.0,21.0,85,30.04,3.0,NW,10.4,-,0.00,Snow,Light Snow,320,2013-03-02 23:52:00
7:39 PM,24.8,21.2,86,29.99,4.0,NW,8.1,-,0.00,Snow,Light Snow,320,2013-03-03 00:39:00
7:52 PM,24.1,21.9,91,30.04,4.0,NW,10.4,-,0.00,Snow,Light Snow,320,2013-03-03 00:52:00
8:12 PM,24.8,21.2,86,29.99,4.0,NW,11.5,-,0.00,Snow,Light Snow,320,2013-03-03 01:12:00
8:52 PM,24.1,21.0,88,30.04,4.0,NW,10.4,-,0.00,Snow,Light Snow,320,2013-03-03 01:52:00
9:35 PM,24.8,21.2,86,30.00,5.0,NNW,8.1,-,0.00,Snow,Light Snow,330,2013-03-03 02:35:00
9:50 PM,24.8,21.2,86,29.99,5.0,NNW,10.4,-,0.00,Snow,Light Snow,330,2013-03-03 02:50:00
9:52 PM,24.1,21.0,88,30.04,5.0,NNW,9.2,-,0.00,Snow,Light Snow,330,2013-03-03 02:52:00
9:59 PM,24.8,19.4,80,29.99,7.0,NNW,10.4,-,0.00,Snow,Light Snow,330,2013-03-03 02:59:00
10:52 PM,24.1,21.0,88,30.04,10.0,NW,6.9,-,0.00,,Overcast,320,2013-03-03 03:52:00
11:06 PM,24.8,21.2,86,29.99,5.0,NW,8.1,-,0.00,Snow,Light Snow,320,2013-03-03 04:06:00
11:27 PM,23.0,21.2,93,29.98,2.5,WNW,4.6,-,0.00,Snow,Light Snow,300,2013-03-03 04:27:00
11:37 PM,23.0,21.2,93,29.99,4.0,WNW,8.1,-,0.00,Snow,Light Snow,300,2013-03-03 04:37:00
11:52 PM,23.0,19.4,86,29.99,6.0,WNW,8.1,-,N/A,Snow,Light Snow,300,2013-03-03 04:52:00